Theta_e
319 320 322 320 321 321 318 318 318 316 315 316 318 317 318 319 319 319 314 313 317 319 320 317 314 312 312 313 313 315 320 320 318 317 319 319 319 320 322 323 322 321 322 324 324 324 325 326 325 325 328 330 331 332 334 336 335 336 335 334 333 334 334 334 334 333 332 332 332 331 329 326 326 326 324 324 326 328 328 329 329 329 329 328 328
320 320 322 321 321 321 319 318 317 316 316 317 319 318 319 320 320 319 314 315 319 319 318 316 313 312 313 313 311 313 318 318 316 317 318 317 316 318 319 321 320 321 322 322 321 322 323 324 324 324 325 326 326 327 328 330 331 333 334 335 335 334 334 333 334 333 331 331 331 331 331 328 326 326 325 325 325 326 327 327 328 328 329 328 328
322 322 322 322 322 321 320 319 318 316 316 317 318 318 320 321 320 319 316 316 320 318 315 314 313 313 313 314 314 313 315 316 316 319 320 319 319 319 318 319 318 318 320 320 321 321 322 324 324 324 324 325 326 326 326 326 326 327 329 332 333 333 334 334 334 333 331 330 331 333 335 332 330 328 326 326 326 326 326 326 327 327 328 328 327
323 321 323 322 322 322 321 320 319 318 317 317 317 317 320 322 320 320 317 317 320 316 313 312 313 314 312 313 316 315 317 320 319 319 319 318 320 319 318 317 316 316 318 320 320 320 321 323 323 324 324 324 325 326 327 327 327 326 326 327 328 330 333 334 335 334 332 331 332 334 333 331 333 331 327 326 327 327 327 326 326 326 327 327 327
323 321 322 322 322 322 323 322 321 320 319 318 319 318 321 323 322 322 319 318 319 317 315 313 312 312 311 313 316 317 319 320 317 316 317 318 319 318 317 316 314 315 317 319 320 319 319 321 322 323 323 324 324 324 325 326 327 327 327 327 326 327 330 332 333 334 334 332 332 334 333 333 335 331 328 328 327 327 328 327 326 326 326 327 326
326 322 321 321 322 322 323 324 323 322 320 319 321 322 322 323 323 324 321 318 319 318 318 316 311 311 313 316 316 317 318 317 314 315 316 317 317 317 316 316 315 315 315 316 318 319 319 319 320 321 322 323 322 322 323 323 324 325 327 328 327 327 328 330 331 332 334 333 330 331 332 333 334 331 332 333 330 328 328 327 327 327 327 327 327
330 326 323 321 321 322 323 324 323 323 323 321 322 323 324 323 324 325 323 320 318 318 319 316 311 311 316 318 318 318 317 313 313 315 315 313 312 314 316 316 316 317 315 314 314 316 318 318 319 319 320 321 321 321 321 321 321 322 324 326 327 328 328 329 330 330 332 333 332 331 331 331 332 331 333 333 332 332 329 328 328 327 327 327 327
330 331 328 322 320 322 323 324 324 324 324 324 323 324 324 323 324 325 324 321 318 318 318 315 314 316 319 320 319 319 316 312 311 312 314 314 312 313 316 316 317 318 317 315 313 313 316 317 318 318 319 319 319 319 320 320 320 320 321 322 324 327 329 330 330 329 331 332 332 333 332 331 331 331 331 331 331 332 330 329 328 328 328 327 327
327 328 326 322 320 321 323 324 325 324 324 325 324 324 323 323 324 325 324 322 320 319 317 315 318 321 319 318 316 316 317 313 310 311 314 316 314 314 316 317 316 316 316 316 315 312 312 313 314 315 317 318 319 319 319 319 319 319 320 320 321 323 325 327 329 330 330 331 331 332 331 330 330 330 331 330 330 330 330 330 330 329 329 328 327
324 324 323 321 320 321 322 323 324 325 325 325 324 324 324 323 324 324 323 322 321 320 317 316 319 320 317 315 315 315 317 314 311 313 314 314 314 315 316 316 316 316 316 315 315 314 311 310 309 310 312 313 315 316 318 319 319 318 319 319 320 321 321 323 325 328 329 329 331 332 331 330 330 330 330 330 330 330 330 330 329 329 330 329 328
321 321 322 321 320 320 321 321 322 325 325 325 325 324 324 324 324 324 324 323 322 321 318 316 318 318 316 315 315 316 317 314 313 316 316 314 316 316 315 316 317 317 316 314 314 314 313 312 311 309 308 309 310 311 311 314 316 318 319 319 320 320 321 321 322 324 327 328 330 331 331 331 330 330 329 330 330 329 330 329 328 328 328 329 330
320 321 324 323 322 321 320 321 321 323 326 326 325 324 324 324 324 324 324 323 322 321 319 317 318 319 317 315 316 316 316 315 315 316 315 314 317 316 315 316 315 315 316 314 315 315 315 315 314 311 311 312 313 313 312 312 313 314 315 317 318 319 320 320 321 322 324 327 328 329 330 330 330 330 329 329 329 329 328 328 328 328 329 329 329
319 321 324 326 325 322 320 321 321 322 325 326 325 324 324 324 324 324 324 323 322 321 319 317 317 319 318 316 317 317 315 315 315 315 316 315 317 316 315 315 315 315 315 314 315 316 316 316 314 312 314 315 316 316 315 315 314 313 313 313 314 316 317 319 319 320 321 323 325 326 328 329 329 330 330 330 330 328 327 328 329 329 331 330 329
319 319 322 325 324 321 320 321 322 322 323 325 325 324 324 324 324 324 324 324 322 321 319 317 317 318 318 316 317 316 316 315 315 316 317 316 315 315 315 315 314 315 315 314 315 315 314 313 312 312 313 313 313 312 312 312 312 313 313 313 314 315 315 316 318 318 319 320 321 323 325 327 327 329 330 331 330 328 327 329 330 330 330 329 329
320 319 320 324 322 319 320 321 322 322 323 324 325 325 325 325 324 324 324 324 322 321 320 318 316 317 316 316 316 316 316 315 314 316 318 316 315 315 315 315 313 313 314 313 313 313 312 312 311 311 311 310 310 310 310 310 310 311 312 313 313 314 314 315 315 317 318 318 319 320 322 324 326 327 328 330 330 330 329 329 329 329 330 329 329
320 319 320 323 321 319 320 321 322 322 322 324 325 325 325 325 325 325 325 325 323 321 320 319 317 317 316 316 317 317 316 315 314 316 317 315 315 315 315 314 313 313 313 313 313 313 312 313 312 312 311 311 311 311 311 311 311 311 310 311 311 312 312 313 314 315 316 316 318 318 319 321 323 325 327 328 329 331 330 329 328 327 328 329 329
319 320 320 322 321 319 319 320 321 322 322 324 325 326 326 326 326 326 326 325 324 322 321 320 319 318 316 316 317 317 316 315 314 315 315 315 315 314 314 314 314 312 312 312 311 312 312 312 312 312 311 311 311 310 310 309 309 309 309 309 310 310 310 311 312 313 314 314 315 317 318 319 321 323 325 326 327 329 329 329 329 328 327 327 328
319 322 323 322 320 318 318 319 321 321 322 324 325 326 327 327 327 327 327 326 324 323 321 320 320 319 318 317 317 317 316 315 313 312 314 315 315 314 313 313 312 311 311 311 311 311 312 311 311 311 311 310 310 309 309 308 308 308 308 308 308 308 309 309 309 310 311 313 313 314 316 317 319 321 323 325 326 327 328 329 329 328 327 326 326
319 321 324 323 320 319 318 320 322 322 323 324 326 327 327 328 328 328 328 327 325 324 322 321 320 319 319 318 317 316 316 315 313 313 313 314 314 313 312 310 310 311 311 311 311 311 310 309 310 310 309 309 309 308 308 308 307 307 307 307 307 307 308 308 308 309 310 311 312 313 314 316 318 319 321 324 326 326 327 328 327 327 328 328 327
321 320 323 322 320 319 319 321 323 323 324 325 327 328 329 329 329 329 328 327 325 324 322 321 321 320 319 318 317 317 315 314 314 313 314 313 313 312 311 310 311 312 311 311 310 309 309 309 309 309 308 308 307 307 307 307 307 306 306 307 307 307 307 307 308 308 308 309 310 312 313 315 316 317 319 322 324 326 327 327 327 326 327 328 327
322 321 322 323 321 319 320 321 323 323 325 326 327 328 329 329 329 329 328 327 325 324 323 322 321 320 319 318 317 316 315 314 314 313 313 313 313 312 311 311 312 311 311 309 308 308 309 309 308 308 307 307 306 306 306 306 306 306 306 306 306 306 306 306 307 307 307 308 308 309 311 313 314 316 317 319 321 324 327 327 327 327 327 328 328
322 321 322 323 320 319 320 321 321 322 324 326 326 328 329 329 329 329 328 327 326 324 323 322 321 320 319 318 317 317 315 314 313 312 312 313 312 311 311 311 311 310 310 309 309 309 309 309 308 308 307 307 306 306 306 306 305 305 305 305 305 305 305 306 306 306 306 307 307 308 309 310 312 313 315 316 318 321 324 326 327 327 327 327 328
324 322 323 321 316 319 321 320 320 321 322 324 325 327 328 328 328 328 327 327 326 325 323 322 320 319 319 318 318 316 315 314 313 312 312 312 311 311 311 310 310 310 309 309 309 309 309 308 308 307 307 307 306 306 305 305 305 305 305 305 305 305 305 305 305 305 306 306 306 307 307 308 309 311 312 314 315 317 320 323 326 327 327 327 328
325 324 325 320 314 317 319 319 319 319 319 322 324 326 328 328 327 327 327 326 325 325 323 321 320 319 319 318 317 316 315 314 313 313 313 312 311 310 310 310 310 310 310 310 310 309 309 308 307 307 307 306 306 306 305 305 305 305 305 305 305 305 305 305 305 305 305 305 306 306 307 307 308 309 310 312 313 314 316 319 322 325 326 327 327
322 322 325 323 319 317 316 316 317 317 318 320 322 326 327 327 327 326 326 326 325 324 322 321 320 319 319 318 317 315 315 314 313 313 313 312 312 311 311 311 311 311 310 310 310 309 308 307 307 306 306 305 305 305 305 305 305 305 305 305 305 305 305 305 305 305 305 305 305 306 306 306 307 307 308 310 312 313 314 316 318 321 323 325 326
315 316 320 322 322 319 315 313 315 317 320 321 322 325 326 326 326 325 325 325 324 324 322 320 319 318 318 317 316 315 315 314 313 313 312 312 312 312 311 311 311 310 310 310 309 308 307 306 306 305 305 305 305 304 305 305 305 305 305 305 305 305 305 305 305 305 305 305 305 305 305 305 306 306 307 308 310 311 313 314 315 318 320 322 324
312 313 315 317 319 319 316 313 313 318 322 323 322 323 324 325 325 325 324 324 323 323 321 319 318 317 317 316 316 315 314 313 313 313 312 312 312 312 311 311 311 310 309 308 307 307 306 305 305 304 304 304 304 304 304 304 304 304 304 304 304 304 304 304 304 304 304 304 304 304 304 304 305 306 306 307 308 309 310 312 314 315 317 320 322
311 312 313 313 314 317 317 314 313 317 322 323 323 323 323 324 324 323 323 322 322 322 320 319 318 317 316 316 315 315 314 314 313 313 312 312 311 311 311 310 309 309 308 307 306 306 305 304 304 304 304 304 303 303 303 304 304 304 304 304 304 304 304 304 304 304 304 304 304 304 304 304 304 304 305 305 306 307 308 308 310 311 313 315 318
311 311 312 311 311 315 316 314 314 317 320 321 322 321 322 323 322 322 322 322 322 321 319 318 317 316 316 315 315 314 314 314 313 312 312 312 311 311 310 309 308 308 307 306 305 304 304 304 304 303 303 303 302 302 302 302 303 303 303 304 304 304 304 304 304 304 304 304 304 304 304 304 304 304 304 304 304 305 305 306 306 307 308 309 311
311 311 311 311 312 315 314 311 313 316 317 318 321 320 320 321 321 320 320 321 321 320 318 317 316 316 316 315 314 314 314 313 312 312 312 311 310 309 309 308 307 307 306 305 304 304 303 303 303 302 302 302 301 301 301 301 301 302 302 302 302 302 302 302 302 302 303 303 303 303 303 303 303 303 303 304 304 304 304 305 305 305 306 306 307
311 311 311 310 312 314 314 311 313 314 315 316 319 318 318 319 319 318 319 320 320 318 317 316 315 315 315 315 315 314 313 313 312 311 311 310 309 308 308 307 307 306 305 304 304 303 303 302 302 301 301 301 300 300 300 300 300 300 300 300 300 300 300 300 300 301 301 301 302 302 302 302 302 302 302 302 303 303 304 304 305 305 306 306 307
310 310 310 310 310 311 313 312 313 314 314 315 317 317 316 317 317 317 317 317 317 317 316 315 315 315 315 315 314 313 313 312 311 310 310 309 308 308 307 306 306 305 304 303 303 303 302 301 301 300 300 300 300 300 300 300 299 299 299 299 299 299 299 299 299 299 299 300 300 300 301 301 301 301 301 301 301 301 302 303 304 305 306 306 307
311 310 310 311 310 310 311 312 313 313 313 313 314 315 315 316 317 316 316 316 316 315 315 315 315 315 314 314 313 312 311 311 310 309 308 308 308 307 306 305 304 304 303 303 303 302 301 301 300 300 300 299 299 299 299 299 299 299 299 299 299 299 299 298 298 298 298 298 298 299 299 300 300 301 301 301 301 300 300 301 302 303 305 306 307
312 311 311 310 310 309 310 311 312 313 312 312 314 314 314 316 316 316 316 316 315 315 314 314 314 313 313 311 311 311 310 310 309 308 308 307 307 306 305 304 304 303 303 302 302 301 300 300 299 299 299 299 299 299 299 299 299 299 299 299 299 298 298 298 298 297 298 298 298 298 298 299 299 300 300 300 300 300 300 300 300 302 303 305 307
311 311 311 310 309 309 310 310 311 312 312 313 314 314 314 315 315 315 316 315 315 314 314 313 313 312 311 311 310 310 309 309 308 307 307 307 306 305 304 304 303 303 302 301 300 300 300 299 299 299 299 298 298 298 298 298 298 298 298 298 297 297 297 296 297 297 297 297 297 297 298 298 298 298 299 299 300 300 300 300 300 300 301 302 303
311 311 311 310 310 310 311 310 311 312 313 314 314 314 315 315 315 316 316 314 314 313 313 312 311 311 311 310 310 308 308 307 307 306 306 306 305 304 304 303 302 302 300 300 300 299 299 298 298 298 298 298 298 297 297 297 297 297 297 296 296 296 296 296 295 295 296 296 296 296 297 297 297 297 298 298 298 299 299 299 300 300 300 300 301
310 310 311 311 312 313 313 313 313 313 313 314 315 314 314 314 314 315 315 313 312 312 311 310 310 310 310 309 308 307 307 307 306 306 305 305 304 304 303 302 301 300 300 299 299 298 298 298 297 297 297 297 297 297 296 296 296 296 296 296 295 295 295 295 295 295 295 295 295 295 296 296 296 297 297 298 298 298 298 299 299 299 299 299 300
309 310 310 311 311 312 312 313 314 314 313 313 314 314 313 313 313 313 313 312 311 311 310 310 309 309 308 307 307 306 306 306 305 305 304 303 303 302 301 301 300 300 299 299 298 298 297 297 297 296 296 296 296 296 296 295 295 295 295 295 295 294 294 294 294 294 294 294 294 294 295 295 296 296 297 297 298 298 298 298 299 299 299 299 299
309 309 310 310 310 310 312 313 313 314 314 313 313 312 312 312 312 311 311 310 310 310 310 309 308 308 307 307 306 306 305 305 304 303 303 302 302 301 301 300 300 299 299 298 298 297 297 296 295 295 295 295 296 295 295 295 295 294 294 294 294 294 293 293 293 293 293 293 294 294 294 295 295 296 296 296 297 297 298 298 299 299 299 299 299
309 309 309 310 310 310 311 312 313 314 314 314 313 312 312 311 310 310 310 310 309 309 309 309 308 307 306 306 305 305 304 304 304 303 302 302 301 301 300 300 299 299 298 298 297 297 296 295 295 294 295 295 295 295 294 294 294 294 294 294 293 293 293 293 293 293 293 293 293 293 294 294 295 295 295 296 296 297 297 297 298 299 299 299 299
308 308 309 310 309 309 310 311 312 313 312 312 312 312 310 310 310 309 308 307 307 307 307 306 306 305 304 304 304 304 304 303 303 302 301 301 301 301 300 300 299 298 298 297 297 296 296 295 295 295 294 294 294 294 294 294 294 294 293 293 293 293 292 292 292 292 292 292 293 293 293 294 294 295 295 296 296 296 296 297 297 298 298 299 299
307 308 309 309 307 306 309 311 311 311 311 311 311 311 310 309 309 307 305 304 305 305 304 304 303 303 303 303 303 303 302 302 302 301 301 301 301 300 300 299 298 298 297 297 297 296 296 296 295 295 294 294 294 293 293 293 293 293 293 293 292 292 292 292 291 291 292 292 292 292 293 293 293 294 295 296 296 296 296 297 297 297 298 298 298
307 309 309 307 305 306 307 308 310 310 310 310 310 309 309 308 306 304 303 304 304 303 303 303 303 302 303 302 302 302 302 302 302 301 301 300 299 299 299 298 298 297 297 296 296 296 296 295 295 294 293 293 293 293 292 292 292 292 292 292 291 291 291 291 290 291 291 291 292 292 292 292 292 293 294 295 296 296 296 297 297 297 297 298 298
307 308 308 306 306 307 307 307 308 309 309 310 310 309 307 306 304 303 303 303 303 302 303 302 302 302 302 302 302 302 301 301 300 299 299 298 298 298 298 298 297 297 296 296 296 296 295 294 294 293 292 292 292 292 292 291 291 291 290 290 290 290 290 290 290 290 290 291 291 291 291 291 291 292 292 293 295 295 296 296 297 297 297 298 298
306 306 306 306 307 308 308 308 309 308 308 309 309 307 305 303 303 303 303 302 302 302 302 302 302 302 302 301 301 300 299 299 299 298 298 298 298 298 298 297 297 297 296 296 295 294 293 293 292 292 292 292 291 291 291 291 290 290 290 290 290 290 290 290 290 290 290 290 290 290 291 291 291 291 291 292 293 294 295 296 296 296 297 297 297
306 306 306 306 307 308 308 309 309 308 308 308 307 304 303 302 302 302 302 302 302 302 302 302 302 301 300 300 299 299 298 298 298 298 298 298 298 298 297 297 296 296 296 295 293 292 292 292 291 291 291 291 291 291 291 290 290 290 290 289 289 289 289 289 289 289 289 289 290 290 290 291 291 291 291 291 292 293 295 295 296 296 296 297 297
306 305 305 306 308 308 308 308 308 308 308 307 305 303 303 303 302 302 302 302 302 301 301 301 301 300 299 299 299 299 299 299 299 299 298 297 297 297 297 296 296 296 295 293 292 291 291 291 291 291 291 291 291 290 290 290 290 289 289 289 289 289 289 289 289 289 289 290 290 290 291 291 291 292 291 291 292 293 294 295 295 296 296 296 297
305 304 304 306 307 308 308 308 308 307 306 305 303 303 303 303 303 303 302 302 302 301 301 300 300 300 299 299 299 299 299 299 299 298 298 297 297 297 296 296 296 295 294 292 291 291 291 291 291 291 291 290 290 290 290 290 289 289 289 289 289 289 289 289 289 289 289 290 290 291 291 292 292 292 292 292 292 293 294 294 295 296 297 298 298
305 304 305 306 307 307 308 308 308 307 305 304 303 303 303 302 303 303 302 302 302 301 301 300 299 300 300 300 299 300 299 299 298 298 297 297 297 296 296 296 295 294 293 292 292 291 291 291 291 291 290 290 290 290 290 289 289 289 289 289 289 289 289 289 289 289 289 289 290 290 291 292 293 293 293 293 293 293 294 294 295 297 298 299 300
305 305 306 306 307 308 308 307 307 306 305 304 303 303 303 302 302 302 302 302 301 301 301 300 300 300 300 300 300 300 299 299 298 297 297 297 297 296 296 295 295 294 293 293 292 292 291 291 291 291 291 290 290 290 290 289 289 289 289 289 289 289 289 289 289 290 290 289 290 291 292 293 293 294 294 294 294 294 295 295 296 297 298 299 300
305 306 306 306 307 307 306 305 305 305 304 303 303 303 303 302 302 302 302 301 301 301 301 300 300 300 300 300 300 299 299 298 298 298 297 297 296 296 295 295 295 294 294 294 293 293 292 290 291 291 291 290 290 290 289 289 289 289 289 289 289 289 289 290 290 290 290 290 291 293 294 294 294 294 295 295 295 295 295 296 297 297 298 299 299
Wind_Speed
16 27 32 34 33 35 37 35 33 30 29 28 26 23 21 19 18 16 14 13 14 12 11 11 12 12 10 11 11 9 10 8 5 4 4 3 2 3 5 4 3 3 3 1 1 1 2 2 0 3 6 8 9 10 11 12 13 12 12 15 18 19 16 14 13 11 9 8 8 7 7 15 21 17 16 19 20 19 18 19 20 20 23 23 23
13 18 25 31 31 34 37 35 35 33 32 32 29 26 23 21 20 17 15 14 11 10 12 13 13 12 11 11 11 10 10 7 5 5 5 4 4 4 4 3 3 4 3 1 2 1 1 2 2 1 1 2 4 6 8 11 14 14 13 14 16 17 17 16 15 12 8 4 3 4 4 8 17 20 18 18 21 22 21 21 20 20 23 23 22
12 13 18 27 30 32 34 33 36 35 34 33 31 29 26 24 21 17 16 14 10 12 15 15 14 13 12 10 9 9 9 7 7 7 6 6 6 5 3 3 2 3 3 1 1 2 2 2 2 1 1 2 3 3 4 6 9 12 14 15 15 15 16 17 16 14 10 5 1 1 2 2 6 14 19 20 21 22 23 23 23 21 23 23 21
13 14 15 22 28 29 30 31 34 34 33 33 31 30 29 27 23 20 18 15 13 15 16 15 13 12 11 10 9 8 9 9 9 8 6 6 7 5 3 4 4 4 5 4 1 3 3 1 1 2 1 3 4 4 5 6 7 7 9 11 13 15 16 15 15 16 14 10 4 1 2 2 3 6 13 21 23 23 23 25 27 26 25 25 24
12 15 13 16 22 26 29 31 31 32 32 33 33 32 31 28 25 22 20 17 16 16 15 14 14 12 11 11 10 9 10 11 10 8 6 7 7 5 3 2 2 1 4 6 4 2 3 2 1 1 2 1 3 4 5 7 8 9 8 9 10 13 16 16 15 15 16 17 12 5 2 2 3 3 5 14 19 22 26 26 27 28 27 26 27
10 14 14 15 20 24 26 28 29 30 33 35 34 32 32 29 26 25 23 20 19 17 16 16 15 14 13 14 14 12 12 12 10 8 8 8 7 5 3 1 2 3 1 5 7 4 2 3 4 3 3 3 3 4 6 6 7 9 10 12 12 13 14 16 18 18 17 19 20 17 12 6 3 1 1 4 9 15 23 27 28 29 29 27 28
7 9 12 15 18 21 23 27 30 31 33 35 34 31 30 28 27 26 24 23 21 19 18 17 15 16 15 14 15 14 14 13 11 10 9 7 7 7 6 3 2 3 3 1 2 5 5 3 3 4 5 5 5 5 6 6 7 9 9 11 13 15 15 16 18 19 16 17 22 24 24 19 12 7 3 1 3 7 14 22 26 28 28 29 29
7 8 13 16 19 22 25 29 32 34 34 34 33 32 30 28 26 27 25 24 23 22 20 18 16 17 15 14 14 14 15 13 11 10 9 7 6 7 6 5 4 3 1 2 2 0 3 4 4 6 7 7 6 6 7 7 8 10 10 10 11 13 16 17 18 18 15 17 20 22 24 24 21 16 13 8 3 3 8 13 21 26 28 29 31
9 9 13 17 21 26 30 32 33 34 35 35 34 33 31 29 27 27 27 26 25 24 22 18 17 17 16 15 13 12 14 13 9 9 9 8 7 7 6 6 6 6 5 3 1 1 0 1 3 5 7 8 9 9 9 9 10 11 11 11 11 11 12 14 17 18 17 19 20 20 22 23 21 20 20 16 10 6 5 5 12 18 22 26 31
9 10 13 18 25 31 33 33 32 33 35 36 35 33 32 31 29 29 29 27 26 25 23 20 19 18 18 16 14 13 13 12 9 10 10 9 8 7 8 7 6 5 5 5 4 3 2 1 1 2 3 5 8 10 12 12 12 12 13 13 12 11 12 13 15 17 18 20 21 21 20 19 17 16 17 18 14 11 7 6 10 11 11 18 27
8 8 11 18 26 30 30 29 29 31 33 35 34 33 32 32 31 31 30 28 27 25 23 22 21 21 20 18 17 17 16 13 13 14 13 11 9 8 7 7 6 6 5 5 5 5 5 3 2 3 4 3 5 7 9 11 12 14 15 16 15 14 13 13 15 17 17 18 20 21 22 21 19 16 16 17 13 9 8 7 12 15 12 13 18
9 8 9 13 18 21 24 26 27 29 30 32 34 33 32 33 32 31 30 28 27 26 25 23 22 22 21 20 18 19 18 16 17 19 17 13 12 11 9 8 8 8 6 5 5 5 5 5 4 5 6 6 6 6 7 10 12 15 17 18 19 19 16 14 15 16 15 16 18 19 22 24 24 23 22 22 18 15 11 7 10 15 13 12 13
10 9 9 10 12 15 21 24 26 29 30 32 35 34 33 32 33 31 30 29 29 27 26 25 24 23 22 21 20 19 19 19 19 18 17 15 15 14 12 11 10 10 8 7 6 6 7 8 7 7 7 7 7 7 8 10 12 15 17 19 20 21 20 18 18 17 16 16 17 18 20 22 24 26 26 24 22 20 16 11 11 12 9 10 13
9 9 10 10 11 16 23 27 29 30 32 34 35 36 34 32 33 33 30 30 30 28 27 27 25 24 23 22 22 20 20 20 19 17 17 17 15 14 14 13 11 10 9 9 9 8 8 9 10 9 10 10 11 12 13 13 14 15 16 17 19 20 20 20 21 21 19 18 18 18 19 21 22 24 26 26 24 21 19 15 11 9 9 10 11
9 10 11 11 14 19 24 28 31 32 35 35 35 36 35 33 34 34 31 30 31 29 28 28 27 26 24 23 22 22 21 20 18 17 17 17 14 14 14 14 12 10 10 10 10 10 10 11 12 12 13 13 13 13 13 13 14 14 15 17 18 19 19 19 20 21 21 21 20 19 19 20 22 23 24 26 26 24 24 22 15 7 7 8 7
7 10 12 12 16 22 25 27 30 32 34 35 35 37 36 34 34 35 33 32 32 31 30 29 28 26 25 23 23 22 21 19 18 17 16 15 14 14 14 13 12 11 11 10 10 10 11 12 12 13 14 13 12 12 12 12 13 14 16 17 18 19 19 19 19 20 21 22 21 21 21 22 22 23 24 25 26 26 26 27 23 15 8 6 5
2 5 9 11 14 20 24 25 27 29 31 33 35 37 37 36 35 34 34 33 33 32 31 29 28 26 26 25 23 23 21 20 19 18 16 15 15 15 13 13 12 12 11 11 10 10 11 11 12 13 13 13 13 13 14 14 13 14 15 16 17 17 18 20 20 21 22 22 23 23 23 24 23 23 24 25 25 26 27 27 27 25 18 9 6
4 4 7 10 12 16 21 24 28 31 32 34 35 35 36 35 35 34 33 33 33 33 32 30 29 28 27 26 24 23 22 21 19 18 17 16 16 16 15 14 12 11 10 10 10 10 11 11 11 12 12 12 12 13 14 14 13 13 15 17 17 17 18 20 21 22 22 23 24 24 24 25 24 24 25 25 25 26 26 27 26 27 26 18 10
3 4 7 10 10 14 20 22 26 30 31 32 34 34 34 33 34 34 33 34 34 33 32 31 30 29 28 27 25 24 22 21 19 18 18 18 18 17 16 13 11 10 10 10 10 11 12 12 11 11 12 12 13 13 13 13 14 15 17 17 17 17 18 19 20 21 22 22 22 24 25 25 25 25 25 25 26 26 26 27 27 27 28 26 21
5 2 5 10 12 16 21 23 26 30 31 32 33 33 33 32 32 32 31 32 34 33 33 32 31 30 29 27 26 25 23 22 21 20 19 19 19 17 14 12 11 11 11 11 12 12 12 12 12 12 14 14 14 14 14 14 15 16 16 16 16 16 18 20 21 21 22 22 22 23 24 24 24 25 25 24 25 27 27 27 28 29 28 26 26
8 8 2 7 12 17 22 26 29 31 31 32 33 33 33 32 32 32 31 32 33 34 33 33 32 31 30 28 27 26 25 23 23 22 20 19 18 16 13 12 12 12 12 12 12 11 11 11 12 13 15 15 15 15 15 15 16 16 17 18 19 19 19 20 21 21 21 22 23 23 24 24 24 24 24 23 23 25 27 29 28 29 28 26 25
7 8 8 3 6 14 19 21 23 25 27 31 32 32 32 33 34 34 33 34 35 36 36 35 33 32 30 29 28 26 25 24 24 23 21 19 17 15 13 12 12 13 12 12 12 12 12 14 15 16 15 15 15 15 14 14 15 16 18 19 20 20 20 20 21 22 22 22 22 24 25 26 25 26 26 25 23 23 24 27 29 29 29 28 27
7 6 7 8 3 10 18 18 20 24 26 30 31 32 34 36 36 36 35 36 37 37 36 35 33 33 31 29 28 26 25 24 23 22 21 19 17 14 13 13 13 12 12 12 12 12 13 14 16 16 15 15 15 15 15 15 15 17 18 19 20 21 22 22 22 23 23 23 23 25 26 26 26 26 28 28 27 25 24 24 27 29 30 30 29
8 7 5 7 8 2 13 15 16 19 24 29 32 33 35 37 36 36 36 36 37 36 35 34 33 32 31 29 28 26 25 24 23 22 20 18 16 14 13 12 12 12 12 12 12 13 13 14 14 15 16 16 17 17 17 18 18 19 20 20 21 22 22 23 24 24 24 23 24 24 24 24 25 26 27 28 29 29 27 25 25 26 29 31 31
8 9 8 7 8 3 4 9 13 16 20 25 29 31 33 35 35 35 34 34 36 36 35 35 34 32 30 29 28 27 26 25 23 21 19 17 15 13 13 13 12 12 12 13 13 14 14 14 14 15 15 15 15 16 17 18 19 19 20 21 22 23 23 23 24 25 25 24 24 24 25 25 25 26 27 27 28 29 29 28 27 25 25 28 30
8 9 9 8 8 7 5 5 9 16 18 19 23 26 28 31 32 32 33 34 35 37 36 35 33 32 31 29 28 27 26 25 23 21 19 16 14 14 14 13 13 13 13 14 14 14 14 14 15 15 15 16 16 17 18 19 19 20 21 22 22 22 23 23 24 25 26 25 25 25 26 26 27 27 27 27 27 28 28 28 28 28 25 24 26
8 7 8 8 9 10 11 11 8 14 21 21 25 27 27 29 30 31 34 34 35 37 36 34 33 32 31 30 29 28 26 24 23 20 18 16 15 15 14 14 14 13 14 14 14 14 14 15 16 16 17 17 17 17 18 20 21 22 23 24 24 24 24 24 25 25 26 27 27 27 27 27 27 27 27 27 28 28 28 27 27 27 26 24 24
9 7 7 7 9 10 11 15 9 11 20 20 22 27 28 31 33 34 34 33 35 37 35 33 33 31 30 30 29 27 25 23 21 20 18 17 16 15 15 15 14 14 15 15 14 15 14 14 15 15 15 15 16 17 18 19 21 22 22 23 24 25 25 25 25 25 25 26 26 26 27 27 28 28 28 28 28 29 30 31 31 28 27 27 25
8 8 8 7 8 8 9 14 8 10 18 18 16 18 19 22 26 30 33 33 34 35 35 33 32 31 31 30 28 26 24 22 21 19 18 17 16 16 15 15 15 15 16 15 15 15 15 15 15 15 15 15 16 18 19 20 21 22 22 23 23 24 24 25 26 26 26 26 26 26 26 26 26 27 28 29 31 32 32 35 37 35 32 30 29
8 8 9 8 7 6 6 11 10 1 12 17 17 15 14 16 19 21 26 34 37 36 34 33 32 30 30 29 27 26 24 22 21 19 18 17 16 16 16 16 16 16 15 14 13 13 14 15 14 15 16 17 18 20 21 22 23 23 24 24 25 24 24 24 25 26 27 28 28 30 31 31 31 31 30 29 30 32 33 35 37 38 36 34 32
10 9 9 10 10 8 6 8 10 6 4 11 15 15 15 15 16 15 15 22 32 35 32 31 31 30 30 28 27 25 24 22 21 19 18 17 16 16 17 17 16 15 13 12 12 13 14 13 13 14 16 17 18 20 21 22 24 25 26 27 28 28 27 26 26 26 27 28 28 30 31 33 35 35 34 32 31 31 32 32 34 36 37 37 35
11 11 11 11 12 12 9 6 7 6 5 12 16 17 15 14 17 20 15 14 21 27 28 29 30 29 29 28 27 25 23 22 20 18 17 17 17 17 16 16 14 11 11 12 13 13 11 11 13 15 16 17 19 20 22 23 25 26 27 28 30 31 31 30 29 28 29 29 29 30 30 31 32 33 33 33 33 33 33 33 34 35 36 37 37
9 9 10 10 10 13 13 10 10 10 9 13 20 22 20 17 20 24 22 17 18 21 23 26 28 29 28 27 25 24 22 20 18 17 17 17 17 16 15 13 11 11 12 13 12 11 10 12 14 15 17 19 20 22 23 24 26 27 27 28 29 31 32 32 31 31 31 30 30 30 30 31 32 32 32 32 33 33 34 34 35 35 35 36 37
6 7 9 9 10 15 19 18 16 15 16 16 21 27 25 23 23 24 25 25 22 20 20 22 26 28 26 24 22 21 20 18 17 16 17 16 15 14 12 11 11 12 12 12 10 10 11 13 14 16 18 19 20 22 23 23 24 25 25 26 27 28 30 30 30 30 31 32 32 32 32 32 32 32 32 32 31 32 32 32 33 33 34 34 33
7 8 9 11 13 17 21 24 24 21 19 18 22 28 28 29 30 28 28 29 28 25 22 21 23 25 24 23 21 19 17 16 15 15 15 14 13 12 10 11 11 10 8 7 8 9 11 13 15 17 19 21 22 22 23 23 23 23 24 24 26 27 28 29 30 30 31 32 32 32 33 34 33 33 33 32 32 32 31 32 33 34 36 38 36
7 8 10 14 18 21 24 26 28 25 21 19 23 31 33 34 34 33 31 30 29 27 24 22 24 25 24 22 19 17 15 14 13 13 13 12 11 11 10 8 7 5 5 6 8 10 13 15 17 18 20 22 23 23 23 24 25 26 27 27 28 28 29 29 30 31 31 32 32 33 33 34 34 35 34 34 34 34 34 35 35 35 37 39 42
10 13 17 21 23 25 27 29 27 24 21 21 24 32 35 35 35 34 33 32 30 28 26 24 24 25 24 21 17 15 13 12 12 12 11 9 8 7 5 3 4 5 6 8 11 13 15 17 18 20 22 23 25 26 27 28 28 28 28 28 28 29 29 30 31 32 32 33 34 34 35 35 36 35 34 34 33 33 36 36 35 35 35 36 41
14 18 21 23 24 26 29 31 29 27 25 22 20 24 26 28 31 33 34 33 32 30 29 28 26 24 22 19 16 13 11 10 9 8 6 4 3 2 2 4 6 7 8 9 12 14 15 17 19 22 23 25 27 28 28 28 28 28 28 28 29 29 29 30 32 32 33 34 35 35 35 36 37 37 35 34 33 33 35 35 33 33 33 34 37
16 18 20 21 24 27 28 28 26 26 29 26 19 17 16 19 25 30 33 32 30 30 31 30 27 23 20 18 16 13 10 8 5 2 2 1 2 3 4 6 7 8 9 10 12 14 16 18 20 22 23 25 27 28 28 28 28 29 29 29 30 30 30 31 32 33 34 35 35 35 35 36 38 38 37 37 36 35 36 35 33 31 32 34 35
17 20 22 22 23 23 23 23 18 12 17 23 22 19 17 20 24 27 29 29 29 30 30 29 26 24 21 17 14 12 9 6 4 2 2 4 6 6 7 8 10 9 9 11 14 16 18 19 20 21 23 25 27 28 28 28 29 29 29 30 31 31 31 31 32 33 34 34 33 34 37 38 38 39 39 39 39 39 39 38 35 33 34 33 30
18 22 24 21 19 17 17 21 15 6 3 7 15 18 15 16 20 22 24 27 30 31 31 30 27 22 19 15 12 11 9 6 3 3 6 7 8 9 10 11 11 9 9 12 15 17 18 20 21 23 25 26 27 28 29 29 29 29 30 32 32 31 31 31 33 33 34 35 35 36 38 38 37 38 39 39 40 41 41 42 40 39 39 35 31
19 22 21 15 13 15 16 18 14 5 7 5 6 16 19 18 18 20 25 32 35 33 30 27 23 18 16 14 12 10 6 3 4 6 7 7 8 9 11 11 9 8 10 11 14 16 18 20 22 24 26 27 28 28 29 29 29 30 31 32 32 32 32 33 34 34 34 35 36 37 38 37 36 36 37 37 39 39 40 42 44 44 43 41 38
16 17 16 10 10 13 15 16 14 8 4 6 7 13 21 23 21 24 30 35 34 31 27 23 21 18 16 12 8 5 3 5 5 4 5 6 8 10 10 9 7 8 9 11 14 16 17 20 24 26 28 28 28 28 28 28 29 30 31 32 33 34 35 36 35 35 35 37 39 40 40 40 39 38 37 37 38 39 39 41 43 43 43 43 42
13 13 13 11 11 12 13 14 14 11 4 3 4 10 20 24 25 28 32 33 31 29 26 23 19 15 12 8 6 5 5 5 3 1 4 7 10 9 9 7 7 8 10 11 13 15 17 21 24 27 28 28 27 27 28 28 29 30 31 32 33 35 36 36 37 38 38 40 41 42 43 43 42 41 40 39 39 40 41 41 42 42 42 42 41
12 12 12 11 13 14 16 17 16 11 5 3 7 17 24 24 27 31 32 30 29 26 22 19 16 13 10 10 10 10 7 5 1 2 4 7 8 6 7 6 8 9 8 9 11 15 19 21 23 25 28 28 27 27 28 29 30 31 31 31 32 33 35 36 38 39 41 42 44 45 46 47 46 45 43 41 40 40 41 42 42 41 41 40 39
12 13 14 15 17 17 17 20 21 15 10 12 20 28 29 26 29 32 30 28 27 24 20 17 15 13 11 11 11 9 6 4 2 1 2 4 3 2 3 6 7 6 6 8 11 15 18 20 22 24 26 27 27 28 29 30 30 30 30 30 32 34 36 37 39 41 42 44 45 45 45 45 45 45 43 41 40 39 38 39 40 40 40 40 38
13 15 17 17 15 15 15 18 22 17 12 24 29 30 30 31 31 29 27 26 25 23 20 17 16 15 11 8 8 7 5 5 4 2 3 4 4 4 6 6 6 5 6 7 10 14 17 19 22 24 26 26 27 27 28 29 29 30 32 33 34 35 37 37 38 39 40 41 41 41 42 42 41 41 39 39 38 38 36 35 35 37 38 39 38
13 16 19 17 14 14 15 21 24 14 16 29 30 28 31 32 29 26 26 25 22 21 19 17 16 15 10 6 7 7 6 6 6 7 6 6 7 7 7 5 5 6 5 6 10 14 16 19 22 25 26 25 26 27 28 30 32 34 36 37 37 37 37 37 38 39 40 40 40 40 40 38 35 34 33 33 34 35 35 34 33 32 33 35 37
12 17 21 19 18 15 14 20 19 9 25 30 26 28 31 30 28 27 26 23 20 19 18 17 17 14 10 5 4 5 7 8 9 8 7 7 8 6 5 5 6 7 5 7 11 13 16 22 26 26 25 24 26 28 31 34 35 35 35 36 37 37 37 38 40 41 40 39 38 36 34 31 27 26 26 27 28 30 31 32 32 30 29 29 29
14 19 20 21 24 15 7 9 10 12 30 29 23 26 29 28 29 28 25 23 21 18 17 19 18 13 9 6 4 5 9 11 9 8 8 7 4 3 3 5 6 7 6 8 12 14 19 27 30 27 26 26 28 31 33 34 34 33 34 35 36 37 37 38 38 37 35 34 32 30 28 25 23 22 22 22 23 24 25 26 28 29 29 27 27
15 19 19 22 22 4 13 8 10 15 33 30 24 27 28 27 27 24 21 21 18 14 14 17 15 12 8 5 4 7 13 11 7 7 8 6 2 1 3 5 7 9 9 9 11 15 22 29 30 28 28 29 31 32 33 33 33 33 33 34 34 35 35 32 30 29 29 29 27 24 22 20 19 20 19 19 20 21 21 23 24 25 27 29 29
Wind_Direction
173 166 164 164 161 159 161 163 164 165 164 163 165 170 172 171 173 172 161 155 158 159 166 158 135 129 128 120 118 117 129 132 123 136 135 144 183 144 117 106 93 91 102 132 305 331 352 7 89 222 232 230 221 209 208 221 226 224 223 223 227 230 230 238 247 248 255 267 276 280 254 233 227 226 223 219 219 227 235 238 239 238 232 231 235
165 163 164 163 159 158 162 163 164 166 166 167 168 172 176 179 180 179 168 164 171 169 167 163 146 142 139 128 127 121 128 134 118 136 132 92 104 137 143 145 140 129 117 30 336 330 297 268 272 298 283 264 256 237 227 231 234 233 231 226 225 232 237 239 242 248 257 259 287 315 299 238 225 224 224 224 224 225 229 235 243 240 229 230 235
159 162 162 164 162 159 162 164 167 169 169 170 172 173 178 184 186 184 177 173 180 178 168 158 150 153 146 136 140 130 130 135 120 130 130 103 117 138 167 204 228 202 180 171 3 351 319 260 249 274 354 357 346 312 278 261 251 243 243 240 235 238 243 243 244 248 246 224 155 334 282 262 240 232 227 229 230 228 229 232 237 240 233 234 238
160 167 164 165 166 163 164 167 168 169 170 172 175 176 180 184 187 188 185 181 183 183 178 168 160 161 153 144 144 132 131 137 128 128 126 129 155 179 220 244 268 251 220 205 171 13 352 323 121 131 96 353 343 328 316 308 298 275 258 252 247 245 246 248 248 249 243 230 204 161 205 215 255 245 233 233 233 230 231 231 233 238 239 239 241
160 170 170 164 169 170 168 168 167 167 171 175 178 179 181 184 187 188 188 185 183 184 186 181 170 165 158 151 149 142 145 152 143 136 135 148 169 190 233 270 329 289 217 207 217 338 360 329 344 150 180 297 323 319 315 316 314 304 292 282 269 257 252 250 249 247 242 234 225 208 187 189 217 244 249 242 238 233 232 232 232 235 239 238 237
169 173 176 167 168 171 169 168 167 168 173 178 180 181 181 183 187 187 188 188 184 185 189 185 174 167 161 156 160 161 160 164 161 152 156 166 171 174 193 209 62 47 69 197 218 244 272 293 309 297 265 262 290 311 309 309 314 312 302 289 282 276 266 255 249 248 243 237 235 235 238 235 207 154 78 263 262 250 238 234 232 234 237 237 233
169 157 165 167 164 165 169 171 171 173 177 181 181 182 180 182 187 188 189 190 188 187 188 186 178 171 168 166 170 172 166 165 168 166 164 164 158 159 168 174 124 60 35 60 218 236 240 253 280 282 276 270 277 299 305 302 309 316 311 296 285 278 268 258 255 256 249 244 243 240 242 245 246 240 223 254 298 281 255 242 236 234 235 236 232
170 147 154 165 166 167 172 175 176 178 180 181 182 183 183 184 189 191 190 190 190 190 191 189 183 175 177 181 181 182 178 171 167 165 167 166 156 151 153 158 161 178 245 357 29 244 227 234 248 259 263 267 271 283 292 292 297 304 312 315 304 284 268 260 261 262 254 250 250 243 240 243 246 246 242 242 249 289 281 261 244 237 235 235 233
180 159 153 164 170 172 175 177 179 180 180 182 183 184 185 187 191 192 191 192 192 195 196 192 186 182 185 188 184 183 181 177 172 168 173 180 173 160 162 172 171 178 199 212 244 10 44 237 256 263 264 265 266 272 277 277 286 299 308 316 317 306 289 276 269 266 259 257 255 250 246 244 245 247 247 245 244 249 271 279 252 240 236 236 234
186 165 154 164 172 175 177 178 178 178 180 183 183 183 184 187 192 191 191 194 194 197 199 193 190 191 191 190 187 184 180 179 183 183 185 188 184 177 175 177 179 183 189 194 209 227 236 266 326 322 288 272 270 276 278 275 278 290 298 301 305 307 304 300 289 278 271 265 259 253 251 248 246 247 247 243 240 239 243 264 269 257 243 242 238
184 165 155 163 172 176 176 176 176 175 177 181 181 182 183 187 192 191 192 196 196 198 198 193 194 198 196 193 192 190 186 187 189 189 193 193 193 195 182 173 187 199 198 200 206 217 231 249 295 320 321 312 294 288 285 283 281 283 286 287 289 293 296 303 304 294 283 274 265 255 249 248 246 243 243 241 235 231 236 251 262 262 259 257 252
173 165 157 157 163 172 173 172 174 174 174 177 180 181 182 186 191 190 192 196 198 199 197 194 196 200 199 196 197 196 193 194 192 190 194 195 195 201 193 186 195 198 205 226 231 226 225 229 257 289 302 310 310 302 294 290 287 284 284 284 284 286 287 293 302 302 295 284 275 264 254 249 247 245 244 243 239 237 242 249 250 253 257 259 261
169 166 161 156 153 162 170 171 174 176 175 176 179 181 181 186 190 189 191 197 199 199 196 194 197 201 200 197 199 199 195 195 195 194 196 196 195 198 197 196 197 201 210 219 216 212 215 227 251 267 269 275 278 277 279 281 283 285 287 288 288 288 287 286 289 294 298 293 288 282 269 258 253 251 249 246 244 241 243 252 250 243 244 251 255
165 169 163 160 160 164 169 172 175 178 178 177 177 179 181 184 188 189 192 196 198 198 196 195 198 201 201 201 201 201 199 198 199 199 197 197 200 201 200 199 197 200 204 203 206 217 232 248 261 259 255 261 266 269 274 278 282 285 287 288 290 292 292 289 286 287 291 291 293 293 283 271 265 260 255 251 249 241 236 240 245 239 238 246 253
157 168 169 167 170 171 172 174 177 179 178 176 176 178 180 182 187 189 191 195 197 197 198 199 201 202 204 206 207 206 207 205 202 200 199 200 204 203 202 203 202 202 205 211 222 234 245 255 260 263 268 276 279 280 282 284 287 289 288 286 285 289 292 293 291 289 289 289 290 293 292 283 276 270 262 257 251 244 238 237 235 235 247 249 249
157 167 175 177 174 174 175 176 177 177 176 176 176 178 180 181 186 189 190 195 197 197 199 201 202 203 205 208 209 209 210 208 202 201 205 205 202 202 205 208 209 210 213 218 227 236 245 253 260 268 277 282 283 282 282 283 284 287 289 291 290 289 290 292 295 293 291 290 288 289 293 291 285 277 270 264 257 250 246 242 237 232 239 251 253
154 158 168 178 177 176 177 175 175 175 175 177 178 180 182 182 184 187 189 193 198 198 198 201 201 202 205 207 209 210 211 211 206 202 205 207 205 207 210 210 214 219 223 229 238 245 250 256 263 271 278 283 284 284 284 283 282 282 284 290 293 293 291 288 291 293 292 291 289 287 289 292 291 285 276 270 265 258 251 247 243 235 229 230 250
153 129 148 173 179 177 176 174 176 177 177 179 179 182 184 184 185 187 188 191 196 198 198 199 201 202 205 207 209 211 212 213 211 207 206 208 210 213 215 217 221 227 234 242 249 251 257 263 268 273 277 282 287 290 292 290 286 283 282 284 287 291 293 289 288 290 292 294 292 288 287 287 289 290 285 276 269 263 254 249 247 241 233 225 229
161 125 136 163 175 176 176 176 177 177 178 178 179 182 183 184 187 189 190 192 196 198 198 199 202 204 206 207 208 209 210 210 209 208 209 211 214 217 221 224 226 230 237 242 250 258 267 271 269 270 272 278 284 287 291 293 290 290 289 286 285 288 292 291 289 288 290 294 294 292 289 286 286 290 291 283 271 264 258 254 251 246 240 233 229
342 334 146 159 171 177 176 176 177 177 178 177 178 182 183 184 187 189 190 192 194 197 197 198 202 205 206 206 207 207 207 208 207 206 210 213 216 220 224 224 225 232 239 248 261 271 272 269 266 270 276 282 284 282 284 289 291 294 294 292 292 294 293 292 292 290 290 290 291 292 290 288 287 288 290 289 278 266 260 257 253 248 244 239 234
356 335 341 152 168 180 180 178 180 179 178 178 180 183 184 185 188 190 189 190 193 196 197 199 201 203 204 205 207 208 207 207 207 208 211 214 217 220 222 223 229 238 249 261 273 276 270 266 270 278 285 287 286 284 283 283 284 287 291 293 295 298 295 291 291 292 291 290 291 291 291 290 289 288 288 290 288 276 261 252 249 248 245 242 237
8 347 345 23 158 184 186 182 180 179 178 180 184 185 184 186 189 190 190 191 193 196 198 198 199 201 204 206 206 207 207 208 208 211 214 215 217 218 219 226 236 246 257 267 272 272 269 270 274 281 287 289 290 291 288 284 283 286 289 292 295 297 296 293 292 291 290 290 290 290 291 291 291 291 288 287 289 287 274 256 247 245 246 244 240
2 354 345 354 13 185 190 189 185 185 185 186 188 187 185 188 190 190 190 192 195 197 196 196 196 199 203 204 205 205 205 207 208 210 213 214 216 218 224 234 244 253 261 268 270 273 275 277 280 284 285 286 289 291 292 291 292 294 295 295 295 294 293 292 291 290 290 290 290 290 290 291 292 293 291 288 286 287 287 275 258 247 244 244 240
346 343 340 346 356 170 189 199 200 195 193 192 192 190 188 190 191 191 191 191 193 194 193 193 195 197 200 201 202 202 202 204 206 208 210 212 216 222 231 240 248 256 263 266 269 275 282 285 289 291 290 290 291 291 293 293 294 295 295 295 295 292 290 289 288 288 288 288 288 289 289 290 292 292 292 291 288 286 286 286 277 262 250 245 241
340 338 335 330 337 352 184 208 222 221 210 199 193 191 189 189 190 190 190 189 190 190 191 192 193 193 195 198 199 199 201 202 203 205 207 210 217 224 231 238 246 253 257 263 268 274 279 285 291 296 297 299 300 300 299 296 295 296 295 294 293 290 287 286 286 287 286 286 286 286 287 288 290 290 289 290 290 289 286 285 286 281 268 256 247
325 321 321 317 313 313 302 260 230 221 214 199 190 189 188 188 189 188 187 187 187 188 188 190 190 189 192 195 196 197 198 199 202 204 207 211 216 222 227 235 241 246 253 260 266 270 276 283 290 294 298 303 306 307 305 302 299 297 295 293 292 291 289 287 285 285 285 285 284 284 285 286 285 285 284 285 288 291 291 288 286 285 283 274 260
307 302 306 310 306 300 291 286 258 206 201 195 188 189 189 188 189 189 188 187 185 185 186 186 187 188 189 192 194 195 197 199 202 204 207 211 215 221 227 231 237 245 253 255 260 269 277 284 289 293 298 303 306 306 305 304 301 298 295 292 290 290 291 289 287 286 284 283 283 282 282 282 282 282 282 283 285 289 291 292 290 288 289 286 276
296 292 298 301 299 296 275 272 267 192 196 201 194 193 193 190 190 189 188 186 183 182 183 184 185 186 189 191 192 193 195 198 202 205 208 211 215 220 226 232 239 244 247 253 264 274 280 285 290 295 298 301 305 307 307 307 305 302 298 294 290 288 288 287 286 286 284 284 282 281 280 279 278 279 278 279 280 284 288 289 290 291 292 293 292
311 308 311 311 301 306 288 280 277 176 186 200 202 203 199 195 194 189 185 184 182 181 181 182 183 185 188 190 190 191 194 196 199 203 206 209 213 219 226 233 237 240 248 262 272 274 277 281 285 289 292 297 301 303 304 305 306 305 302 298 295 292 289 287 286 285 284 283 282 282 282 282 281 280 279 279 278 278 281 283 285 287 289 291 294
328 323 322 323 313 323 335 321 327 251 189 197 197 195 188 190 197 193 188 185 181 180 180 179 181 183 185 187 188 190 193 195 198 200 202 207 214 222 228 231 236 248 261 269 272 273 275 277 280 286 291 297 300 299 299 299 298 300 301 302 301 299 296 293 290 287 285 282 281 280 280 280 281 282 283 284 283 280 278 278 279 282 283 282 283
323 319 315 316 311 315 335 335 335 337 223 209 210 203 193 193 195 193 195 190 181 177 176 176 177 179 181 183 186 189 192 194 196 197 201 211 220 224 229 235 244 256 263 265 273 276 274 275 284 295 300 301 301 300 298 296 293 294 296 298 299 299 298 296 293 290 287 285 283 281 280 279 278 278 279 279 282 284 283 281 280 280 280 278 276
310 311 313 315 312 310 309 305 313 312 222 211 221 220 208 197 187 183 189 198 186 175 171 173 174 175 177 181 184 186 187 189 191 198 208 216 220 223 230 238 244 253 264 274 279 275 273 286 299 304 305 304 304 303 300 297 295 293 293 292 291 292 293 292 291 289 287 286 285 283 281 279 277 276 276 275 276 278 280 282 283 282 280 277 275
307 312 317 319 316 314 311 307 306 300 268 231 220 215 206 191 179 175 172 174 178 174 169 169 171 171 172 175 179 181 183 187 195 205 212 212 216 226 232 238 250 270 278 275 271 271 285 303 309 310 309 308 307 304 301 298 296 295 294 291 288 287 288 288 288 288 286 285 284 283 281 279 277 277 276 275 274 275 275 278 280 282 281 278 276
320 321 319 316 313 310 307 304 298 292 288 265 226 210 201 185 174 172 169 166 168 169 168 167 168 169 170 171 175 179 183 191 198 203 207 212 221 229 235 250 271 280 275 268 272 290 307 313 313 313 312 310 309 306 303 301 299 298 296 292 288 287 287 287 286 286 285 284 282 281 279 278 277 276 275 274 274 274 274 274 275 278 280 281 280
322 320 319 315 313 308 301 298 294 287 285 271 231 205 190 177 171 170 170 169 168 168 170 172 171 170 171 172 174 177 181 188 196 202 211 220 226 234 248 269 277 274 270 280 300 314 320 321 319 317 313 310 310 308 306 304 302 302 300 297 295 294 292 290 288 286 284 283 281 279 277 275 275 273 271 271 272 272 272 271 271 272 274 278 279
317 320 319 314 312 308 301 295 289 280 274 265 232 201 183 175 173 171 168 166 165 165 170 174 172 170 169 168 170 174 179 189 200 210 220 228 236 249 261 268 272 276 290 308 317 320 321 321 320 319 316 313 311 310 308 307 305 305 304 301 298 296 294 291 289 288 286 284 282 279 276 274 273 271 269 269 268 269 270 268 268 267 269 272 273
322 324 321 317 314 311 307 301 291 275 267 260 233 204 186 177 173 169 165 162 159 161 170 172 168 164 161 160 162 168 180 198 210 218 228 237 246 254 259 266 287 300 307 314 319 321 323 322 319 318 315 313 310 308 306 305 305 305 304 301 299 297 295 292 290 289 287 285 282 279 276 274 272 270 269 267 265 265 265 264 264 264 264 266 269
331 326 320 316 313 310 305 299 288 273 264 255 231 210 196 182 171 164 161 159 156 160 170 168 159 154 154 156 162 173 188 203 211 217 224 231 246 263 295 309 304 300 304 313 317 319 320 320 319 318 314 309 305 303 302 301 301 301 300 299 299 298 295 293 291 290 287 286 284 281 276 273 271 270 268 266 263 262 260 259 259 261 260 260 264
327 320 311 307 307 307 305 297 283 267 258 245 220 203 199 186 171 160 155 155 156 162 168 162 154 154 156 159 168 179 187 191 191 196 209 257 320 324 317 304 291 284 289 302 311 314 314 316 317 316 312 306 301 299 299 297 296 296 296 296 298 298 296 294 292 290 288 287 285 283 279 274 272 270 268 265 262 258 257 256 255 256 256 256 259
319 313 305 300 300 303 307 305 297 279 254 235 208 189 191 187 171 155 149 152 159 162 159 154 150 153 154 156 167 178 183 186 190 207 268 303 308 304 293 279 267 268 284 302 312 310 307 308 311 312 309 304 300 299 298 296 293 292 291 291 293 294 293 291 290 289 289 287 285 283 282 278 276 273 268 265 261 256 254 254 253 251 252 254 258
309 305 298 296 301 307 312 308 308 359 37 214 180 160 163 167 153 140 136 141 146 143 139 139 141 143 144 150 162 165 162 169 196 252 282 287 283 275 266 257 253 266 290 305 309 307 303 304 306 307 306 304 301 300 299 298 295 292 291 290 290 289 288 288 289 288 287 286 284 282 282 280 278 275 269 264 260 256 253 251 249 249 251 255 260
303 300 293 296 317 327 328 319 308 339 35 30 123 132 134 133 128 126 126 127 129 128 127 129 130 132 137 144 146 143 146 195 244 264 267 265 264 257 248 244 250 273 293 302 305 306 305 304 305 306 305 304 303 302 301 300 298 295 293 291 288 287 288 288 288 286 284 283 281 280 280 279 278 276 270 264 259 255 252 249 248 250 252 254 256
304 304 299 308 334 334 336 338 326 318 14 60 88 119 128 129 128 127 123 121 122 123 124 125 128 132 135 133 131 137 199 225 227 241 251 268 276 258 237 235 253 277 290 300 308 311 310 309 308 308 308 306 305 304 303 302 301 298 295 293 290 290 290 288 285 283 282 281 280 279 280 279 278 275 270 265 261 255 251 249 249 251 253 252 253
302 306 308 319 334 330 328 332 325 318 344 86 114 121 122 125 128 127 122 121 121 123 125 127 126 125 122 117 123 144 165 169 167 246 279 297 292 261 230 235 266 284 294 303 314 320 319 315 311 310 310 310 309 307 305 304 303 301 298 296 294 293 291 288 284 282 281 281 280 279 280 279 277 274 269 265 261 256 253 251 250 251 252 252 250
301 306 311 318 322 318 312 305 295 280 261 223 159 136 127 128 130 126 123 122 122 121 120 119 117 116 120 130 133 127 124 128 125 282 294 315 304 253 226 254 277 287 298 310 326 331 327 320 315 312 313 313 312 310 308 306 306 305 302 299 297 295 292 289 286 284 283 282 281 281 281 279 277 273 268 264 260 256 253 251 250 250 250 249 247
309 309 310 313 314 313 307 298 285 260 209 162 143 136 132 130 128 124 122 122 121 116 111 112 122 126 125 133 133 118 114 145 163 275 322 350 344 253 260 286 281 284 304 321 334 338 332 324 319 317 316 314 313 312 309 308 309 308 305 304 301 298 295 293 290 287 286 286 285 283 282 280 278 274 267 260 255 251 250 249 249 249 248 244 242
306 307 308 307 305 304 298 286 278 261 177 142 139 138 134 131 127 123 121 120 117 113 109 115 129 131 122 132 141 130 141 171 159 103 74 56 32 344 315 299 278 279 305 327 341 341 333 326 326 325 321 316 314 312 310 311 313 311 310 308 305 302 299 296 293 291 290 288 287 285 284 282 278 274 267 259 252 248 246 245 245 246 245 242 239
301 306 306 301 298 293 273 261 263 249 150 138 141 139 135 131 126 121 120 120 119 117 116 118 124 122 114 134 160 158 165 163 128 96 77 40 4 336 315 297 284 286 300 338 355 348 337 335 336 332 325 318 315 314 313 315 316 315 312 310 307 303 301 297 295 294 293 291 288 287 285 281 274 268 262 255 249 244 241 240 239 240 240 237 236
313 307 301 297 294 281 244 239 251 194 138 140 143 139 136 132 127 124 123 123 124 128 130 130 125 116 108 124 160 169 159 138 111 88 57 22 1 341 317 296 289 285 298 350 2 356 349 349 347 338 327 318 314 315 317 318 318 317 315 312 308 305 302 299 298 296 294 291 288 285 281 274 263 255 250 246 242 238 235 234 233 233 233 232 231
314 301 296 294 292 284 191 203 245 154 137 141 141 136 134 130 128 131 130 125 127 135 138 135 130 123 123 141 164 155 140 128 106 74 43 25 18 354 325 312 301 290 295 339 357 0 359 357 352 343 332 324 317 317 320 321 321 321 320 316 312 310 308 304 302 301 296 289 284 279 274 266 254 246 241 238 234 229 226 225 225 226 229 233 234
304 294 290 290 294 313 122 171 241 155 139 141 139 134 132 131 133 136 131 126 134 145 139 134 135 134 135 163 184 143 127 118 91 53 31 21 53 80 343 325 316 303 297 314 335 344 351 355 354 346 339 333 327 325 326 328 328 327 325 322 319 317 316 312 310 307 298 288 281 275 271 265 252 241 236 232 227 221 219 221 223 224 228 232 233